• In Uzbekistan
  • List of Countries
  • For 7 days
  • Water Temperature
  • Satellite Maps
  • Weather Map
  • Weather Widgets
  • user-avatar
    Login

    Hourly Weather Booué

    Today, 19 June, Wednesday

    Time Temperature Precipitation Wind Pressure Humidity
    00:00 +25°C° 0.9 mm 1 mps 736 mmHg 94%
    01:00 +24°C° 0 mm 1 mps 736 mmHg 96%
    02:00 +24°C° 0 mm 1 mps 735 mmHg 97%
    03:00 +24°C° 0 mm 1 mps 735 mmHg 97%
    04:00 +24°C° 0 mm 1 mps 735 mmHg 98%
    05:00 +24°C° 0 mm 1 mps 735 mmHg 97%
    06:00 +24°C° 0 mm 1 mps 736 mmHg 97%
    07:00 +22°C° 0 mm 0 mps 736 mmHg 96%
    08:00 +24°C° 0 mm 0 mps 737 mmHg 88%
    09:00 +26°C° 0 mm 0 mps 737 mmHg 79%
    10:00 +28°C° 0 mm 0 mps 737 mmHg 71%
    11:00 +30°C° 0 mm 1 mps 736 mmHg 68%
    12:00 +31°C° 0 mm 1 mps 736 mmHg 65%
    13:00 +32°C° 0 mm 1 mps 735 mmHg 62%
    14:00 +32°C° 0.9 mm 1 mps 734 mmHg 66%
    15:00 +29°C° 0.9 mm 0 mps 734 mmHg 70%
    16:00 +29°C° 0.9 mm 0 mps 733 mmHg 74%
    17:00 +27°C° 2.1 mm 0 mps 734 mmHg 80%
    18:00 +26°C° 2.1 mm 0 mps 734 mmHg 85%
    19:00 +24°C° 2.1 mm 0 mps 735 mmHg 91%
    20:00 +24°C° 0.7 mm 0 mps 735 mmHg 92%
    21:00 +24°C° 0.7 mm 0 mps 736 mmHg 92%
    22:00 +23°C° 0.7 mm 0 mps 736 mmHg 92%
    23:00 +25°C° 0.1 mm 1 mps 736 mmHg 93%

    Tomorrow, 20 June, Thursday

    Time Temperature Precipitation Wind Pressure Humidity
    00:00 +25°C° 0.1 mm 1 mps 736 mmHg 93%
    01:00 +25°C° 0.1 mm 1 mps 736 mmHg 94%
    02:00 +24°C° 0 mm 1 mps 736 mmHg 95%
    03:00 +24°C° 0 mm 1 mps 735 mmHg 95%
    04:00 +23°C° 0 mm 1 mps 735 mmHg 95%
    05:00 +23°C° 0 mm 1 mps 735 mmHg 95%
    06:00 +23°C° 0 mm 1 mps 736 mmHg 94%
    07:00 +21°C° 0 mm 0 mps 736 mmHg 94%
    08:00 +25°C° 0 mm 1 mps 737 mmHg 86%
    09:00 +27°C° 0 mm 1 mps 737 mmHg 78%
    10:00 +29°C° 0 mm 1 mps 737 mmHg 69%
    11:00 +30°C° 0 mm 1 mps 736 mmHg 66%
    12:00 +31°C° 0 mm 2 mps 736 mmHg 62%
    13:00 +32°C° 0 mm 2 mps 735 mmHg 58%
    14:00 +32°C° 0 mm 2 mps 734 mmHg 59%
    15:00 +32°C° 0 mm 1 mps 734 mmHg 59%
    16:00 +32°C° 0 mm 1 mps 733 mmHg 59%
    17:00 +30°C° 0.4 mm 1 mps 734 mmHg 69%
    18:00 +28°C° 0.4 mm 1 mps 734 mmHg 79%
    19:00 +26°C° 0.4 mm 1 mps 735 mmHg 89%
    20:00 +26°C° 0.1 mm 1 mps 735 mmHg 90%
    21:00 +25°C° 0.1 mm 1 mps 736 mmHg 90%
    22:00 +25°C° 0.1 mm 1 mps 737 mmHg 91%
    23:00 +25°C° 0 mm 1 mps 737 mmHg 91%

    Day after tomorrow, 21 June, Friday

    Time Temperature Precipitation Wind Pressure Humidity
    00:00 +25°C° 0 mm 1 mps 736 mmHg 91%
    01:00 +24°C° 0 mm 1 mps 736 mmHg 91%
    02:00 +24°C° 0 mm 1 mps 736 mmHg 92%
    03:00 +24°C° 0 mm 1 mps 736 mmHg 93%
    04:00 +24°C° 0 mm 1 mps 735 mmHg 94%
    05:00 +24°C° 0 mm 1 mps 736 mmHg 94%
    06:00 +24°C° 0 mm 1 mps 736 mmHg 93%
    07:00 +24°C° 0 mm 1 mps 737 mmHg 93%
    08:00 +25°C° 0 mm 1 mps 737 mmHg 88%
    09:00 +26°C° 0 mm 1 mps 737 mmHg 83%
    10:00 +27°C° 0 mm 2 mps 738 mmHg 77%
    11:00 +28°C° 0 mm 2 mps 737 mmHg 73%
    12:00 +29°C° 0 mm 2 mps 737 mmHg 69%
    13:00 +30°C° 0 mm 1 mps 736 mmHg 65%
    14:00 +30°C° 0.3 mm 2 mps 735 mmHg 68%
    15:00 +30°C° 0.3 mm 2 mps 735 mmHg 71%
    16:00 +30°C° 0.3 mm 2 mps 734 mmHg 73%
    17:00 +28°C° 0.2 mm 2 mps 735 mmHg 80%
    18:00 +27°C° 0.2 mm 1 mps 735 mmHg 86%
    19:00 +25°C° 0.2 mm 1 mps 736 mmHg 92%
    20:00 +25°C° 0 mm 1 mps 736 mmHg 93%
    21:00 +25°C° 0 mm 1 mps 737 mmHg 94%
    22:00 +24°C° 0 mm 1 mps 737 mmHg 95%
    23:00 +24°C° 0 mm 1 mps 737 mmHg 95%

    22 June, Saturday

    Time Temperature Precipitation Wind Pressure Humidity
    00:00 +24°C° 0 mm 1 mps 737 mmHg 95%
    01:00 +24°C° 0 mm 1 mps 737 mmHg 95%
    02:00 +24°C° 0 mm 1 mps 736 mmHg 95%
    03:00 +23°C° 0 mm 1 mps 736 mmHg 94%
    04:00 +23°C° 0 mm 1 mps 736 mmHg 94%
    05:00 +23°C° 0 mm 1 mps 736 mmHg 94%
    06:00 +23°C° 0 mm 1 mps 737 mmHg 94%
    07:00 +21°C° 0 mm 0 mps 737 mmHg 94%
    08:00 +24°C° 0 mm 1 mps 737 mmHg 92%
    09:00 +24°C° 0 mm 1 mps 737 mmHg 89%
    10:00 +25°C° 0 mm 1 mps 738 mmHg 87%
    11:00 +26°C° 0 mm 1 mps 737 mmHg 82%
    12:00 +27°C° 0 mm 1 mps 737 mmHg 77%
    13:00 +28°C° 0 mm 1 mps 736 mmHg 72%
    14:00 +28°C° 0 mm 1 mps 735 mmHg 70%
    15:00 +29°C° 0 mm 1 mps 735 mmHg 68%
    16:00 +29°C° 0 mm 1 mps 734 mmHg 66%
    17:00 +28°C° 0 mm 1 mps 734 mmHg 73%
    18:00 +27°C° 0 mm 1 mps 735 mmHg 80%
    19:00 +25°C° 0 mm 1 mps 735 mmHg 87%
    20:00 +25°C° 0 mm 1 mps 736 mmHg 88%
    21:00 +24°C° 0 mm 1 mps 736 mmHg 89%
    22:00 +22°C° 0 mm 0 mps 736 mmHg 89%
    23:00 +24°C° 0 mm 1 mps 736 mmHg 90%

    23 June, Sunday

    Time Temperature Precipitation Wind Pressure Humidity
    00:00 +24°C° 0 mm 1 mps 736 mmHg 91%
    01:00 +24°C° 0 mm 1 mps 736 mmHg 91%
    02:00 +23°C° 0 mm 1 mps 736 mmHg 92%
    03:00 +23°C° 0 mm 1 mps 736 mmHg 93%
    04:00 +23°C° 0 mm 1 mps 735 mmHg 94%
    05:00 +23°C° 0 mm 1 mps 736 mmHg 92%
    06:00 +23°C° 0 mm 1 mps 736 mmHg 90%
    07:00 +23°C° 0 mm 1 mps 736 mmHg 88%
    08:00 +24°C° 0 mm 1 mps 737 mmHg 83%
    09:00 +25°C° 0 mm 1 mps 737 mmHg 78%
    10:00 +26°C° 0 mm 1 mps 737 mmHg 72%
    11:00 +28°C° 0 mm 1 mps 737 mmHg 68%
    12:00 +29°C° 0 mm 2 mps 736 mmHg 64%
    13:00 +30°C° 0 mm 2 mps 736 mmHg 60%
    14:00 +30°C° 0 mm 2 mps 735 mmHg 59%
    15:00 +30°C° 0 mm 2 mps 734 mmHg 58%
    16:00 +30°C° 0 mm 2 mps 734 mmHg 57%
    17:00 +29°C° 0 mm 1 mps 734 mmHg 63%
    18:00 +27°C° 0 mm 1 mps 734 mmHg 70%
    19:00 +25°C° 0 mm 1 mps 735 mmHg 77%
    20:00 +25°C° 0 mm 1 mps 735 mmHg 77%
    21:00 +24°C° 0 mm 1 mps 736 mmHg 78%
    22:00 +24°C° 0 mm 1 mps 736 mmHg 78%
    23:00 +24°C° 0 mm 1 mps 736 mmHg 79%

    24 June, Monday

    Time Temperature Precipitation Wind Pressure Humidity
    00:00 +23°C° 0 mm 1 mps 736 mmHg 80%
    01:00 +23°C° 0 mm 1 mps 735 mmHg 81%
    02:00 +22°C° 0 mm 1 mps 735 mmHg 84%
    03:00 +22°C° 0 mm 1 mps 735 mmHg 87%
    04:00 +22°C° 0 mm 1 mps 735 mmHg 90%
    05:00 +22°C° 0 mm 1 mps 736 mmHg 90%
    06:00 +22°C° 0 mm 1 mps 736 mmHg 90%
    07:00 +22°C° 0 mm 1 mps 736 mmHg 90%
    08:00 +24°C° 0 mm 1 mps 736 mmHg 81%
    09:00 +26°C° 0 mm 1 mps 737 mmHg 72%
    10:00 +28°C° 0 mm 1 mps 737 mmHg 63%
    11:00 +29°C° 0 mm 1 mps 736 mmHg 59%
    12:00 +29°C° 0 mm 1 mps 736 mmHg 56%
    13:00 +30°C° 0 mm 1 mps 735 mmHg 52%
    14:00 +31°C° 0 mm 1 mps 734 mmHg 51%
    15:00 +31°C° 0 mm 1 mps 734 mmHg 50%
    16:00 +31°C° 0 mm 1 mps 733 mmHg 48%
    17:00 +29°C° 0 mm 1 mps 733 mmHg 55%
    18:00 +28°C° 0 mm 1 mps 734 mmHg 63%
    19:00 +26°C° 0 mm 1 mps 734 mmHg 70%
    20:00 +25°C° 0 mm 1 mps 735 mmHg 71%
    21:00 +25°C° 0 mm 1 mps 735 mmHg 72%
    22:00 +24°C° 0 mm 1 mps 736 mmHg 74%
    23:00 +24°C° 0 mm 1 mps 735 mmHg 75%
    Show more